Regional Weather Roundup
Issued by NWS Albany, NY

Home | Current Version | Previous Version | Text Only | Print | Product List | Glossary On
Versions: 1 2 3 4 5 6 7 8 9 10 11 12 13 14 15 16 17 18 19 20 21 22 23 24 25 26 27 28 29 30 31 32 33 34 35 36 37 38 39 40 41 42 43 44 45 46 47 48 49 50
000
ASUS41 KALY 301610
RWRALY

NEW YORK STATE HOURLY WEATHER ROUNDUP
NATIONAL WEATHER SERVICE ALBANY NY
1200 PM EDT SAT AUG 30 2014

NOTE: "FAIR" INDICATES FEW OR NO CLOUDS BELOW 12,000 FEET WITH NO
SIGNIFICANT WEATHER AND/OR NO OBSTRUCTIONS TO VISIBILITY.

NYZ032-033-038>043-046>054-057>066-NYZ062>081-301700-
EAST


CITY           SKY/WX    TMP DP  RH WIND       PRES   REMARKS
ALBANY         MOSUNNY   74  55  51 S18G25    30.20F
GLENS FALLS    SUNNY     72  57  59 S12       30.18F
POUGHKEEPSIE   NOT AVBL
NEWBURGH       PTSUNNY   73  54  49 VRB6      30.25F
MONTGOMERY     PTSUNNY   75  57  53 W7        30.23F
WHITE PLAINS   MOSUNNY   75  56  51 S13G20    30.25F
ISLIP          PTSUNNY   73  60  63 S9        30.25F
NEW YORK CITY  MOSUNNY   77  57  50 S14G22    30.24F
CENTRAL PARK   SUNNY     79  56  45 S6        30.27F
$$

NYZ005>009-017-018-044>046-055-056-301700-
CENTRAL


CITY           SKY/WX    TMP DP  RH WIND       PRES   REMARKS
FULTON         SUNNY     76  60  57 S16       30.10F
SYRACUSE       MOSUNNY   78  62  57 S12       30.10F
ROME           MOSUNNY   74  61  63 S10       30.15F
ELMIRA         SUNNY     76  63  64 SW9       30.14F
BINGHAMTON     CLOUDY    68  60  75 S10       30.20F
MONTICELLO     CLOUDY    68  59  73 S5        30.27F
$$

NYZ026>034-041>043-301700-
NORTH


CITY           SKY/WX    TMP DP  RH WIND       PRES   REMARKS
WATERTOWN      MOSUNNY   75  57  53 SW10      30.08F
FORT DRUM      NOT AVBL
MASSENA        MOSUNNY   73  59  61 SW13      30.07F
SARANAC LAKE   PTSUNNY   72  55  55 S14       30.13F
PLATTSBURGH    SUNNY     70  59  68 SE18G30   30.11F
$$

NYZ001>004-010>016-019>021-301700-
WEST


CITY           SKY/WX    TMP DP  RH WIND       PRES   REMARKS
NIAGARA FALLS  PTSUNNY   81  63  54 SW13      30.02F
BUFFALO        PTSUNNY   83  62  49 SW9       30.04F
DUNKIRK        MOSUNNY   82  66  58 S22       30.04F
JAMESTOWN      MOSUNNY   73  66  78 S9        30.12F
WELLSVILLE     MOSUNNY   75  61  61 S12G18    30.18F
ROCHESTER      MOSUNNY   78  61  55 S7        30.06F
PENN YAN       SUNNY     76  60  57 S13       30.13F
$$

             KEY
       WCI = WIND CHILL INDEX
       VSB = VISIBILITY
       HX  = HEAT INDEX
$$


USA.gov is the U.S. government's official web portal to all federal, state and local government web resources and services.